Content
SEND FEEDBACK

Daily
Averages
Monthly
Summary
United States of America

CANTON, SOUTH DAKOTA


Home > North America > United States > South Dakota
Elevation: 1323 feet     Latitude: 43 18N     Longitude: 096 40W

WEATHER
 
SELECT A DAY
Number of Records: 207,550;   Date Range: 1/1/95 - 12/16/14
 
SHARE

PRINT THIS DATA

[ ← Previous Day ]
WEATHER ALMANAC - JANUARY 31, 2013
[ Next Day → ]
[ °C ]   °F
Weather ElementAverageHighLow
Temperature-5.2 °F-2 °F (2:56 pm)-8 °F (10:56 pm)
Dewpoint-13 °F-9.9 °F (1:56 am)-15 °F (8:56 am)
Humidity69.2 %76 % (5:56 am)62 % (3:56 pm)
Barometer30.29 in30.46 in (7:56 pm)30.02 in (1:56 am)
Wind Speed19.1 mph27.6 mph (11:56 am)
Wind Gust34.5 mph (11:56 am)
Weather ElementAverage
Visibility9.4 mi
Wind DirectionNW (309.6 °)

Weather ElementTotal
Precipitation---
Heating Degree Days70 (Base 65)
Averaged from 27 records on January 31, 2013
WEATHER CONDITIONS BREAKOUT
WIND DIRECTION BREAKOUT
WEATHER BY HOUR - JANUARY 31, 2013
[ °C ]   °F
Local TimeTemperatureDewpointHumidityBarometerVisibilityWind DirectionWind SpeedGust SpeedPrecipitationEventsConditions
1:56 AM-2.9 °F-9.9 °F72 %30.02 in10.0 miNW (310°)16.1 mphClear
2:56 AM-4.0 °F-11.0 °F72 %30.04 in10.0 miNW (310°)19.6 mph23.0 mphClear
3:56 AM-5.1 °F-11.9 °F72 %30.07 in10.0 miNW (320°)23.0 mph27.6 mphMostly Cloudy
4:56 AM-6.0 °F-11.9 °F75 %30.09 in10.0 miNW (320°)20.7 mphOvercast
5:56 AM-5.1 °F-11.0 °F76 %30.12 in9.0 miWNW (300°)16.1 mph24.2 mph0.00 inSnowLight Snow
6:56 AM-6.0 °F-13.0 °F72 %30.17 in4.0 miNW (320°)18.4 mph0.00 inSnowLight Snow
7:56 AM-7.1 °F-14.1 °F72 %30.20 in4.0 miNNW (330°)21.9 mph27.6 mph0.00 inSnowLight Snow
8:56 AM-7.1 °F-15.0 °F68 %30.25 in9.0 miNW (320°)21.9 mph29.9 mph0.00 inSnowLight Snow
9:56 AM-7.1 °F-15.0 °F68 %30.29 in10.0 miNW (310°)24.2 mph29.9 mph0.00 inMostly Cloudy
10:56 AM-5.1 °F-13.0 °F69 %30.32 in9.0 miNW (310°)21.9 mph31.1 mphScattered Clouds
11:19 AM-5.8 °F-14.8 °F65 %30.20 in10.0 miNW (320°)20.7 mph32.2 mphMostly Cloudy
11:45 AM-4.0 °F-13.0 °F65 %30.21 in9.0 miNW (320°)24.2 mph32.2 mphScattered Clouds
11:56 AM-4.0 °F-13.0 °F65 %30.34 in10.0 miNW (320°)27.6 mph34.5 mphScattered Clouds
12:28 PM-4.0 °F-13.0 °F65 %30.22 in10.0 miNW (310°)24.2 mph31.1 mphMostly Cloudy
12:56 PM-2.9 °F-11.9 °F65 %30.35 in10.0 miNW (320°)25.3 mph31.1 mphMostly Cloudy
1:56 PM-2.9 °F-11.9 °F65 %30.36 in10.0 miWNW (300°)23.0 mph33.4 mphMostly Cloudy
2:53 PM-2.2 °F-11.2 °F66 %30.25 in10.0 miNW (320°)21.9 mph28.8 mphScattered Clouds
2:56 PM-2.0 °F-11.9 °F63 %30.38 in10.0 miNW (310°)20.7 mph28.8 mphScattered Clouds
3:56 PM-2.9 °F-13.0 °F62 %30.40 in10.0 miNW (310°)23.0 mph26.5 mphClear
4:56 PM-5.1 °F-13.0 °F69 %30.41 in10.0 miWNW (300°)20.7 mph26.5 mphPartly Cloudy
5:56 PM-6.0 °F-14.1 °F68 %30.43 in10.0 miWNW (300°)19.6 mph26.5 mphPartly Cloudy
6:56 PM-7.1 °F-14.1 °F72 %30.45 in10.0 miWNW (300°)12.7 mph19.6 mphClear
7:56 PM-7.1 °F-15.0 °F68 %30.46 in10.0 miWNW (300°)11.5 mph16.1 mphClear
8:56 PM-7.1 °F-14.1 °F72 %30.46 in10.0 miNW (310°)17.3 mphClear
9:56 PM-7.1 °F-14.1 °F72 %30.45 in10.0 miWNW (300°)10.4 mphClear
10:56 PM-8.0 °F-14.1 °F75 %30.45 in10.0 miWNW (300°)5.8 mphClear
11:56 PM-8.0 °F-14.1 °F75 %30.44 in10.0 miWest (270°)4.6 mphClear
Hourly data recorded from KFSD, located miles away from Canton, South Dakota







STORIES FROM OUR PARTNERS